This demonstration page uses our WeatherBlox Daily Observations layout. Learn more.

Left ArrowRight Arrow

Hourly Observations for August 5, 2022

Temp ( °F °C ) Dew Point ( °F °C ) Humidity (%) Winds ( mph kmh ) Pressure ( in mb ) Visibility ( mi km ) Precip ( " mm )
12:53 am 00:53 Clear 76 24.4 68 20 77 77 ESE 7 11 29.95 1014 10 16 0.00 0.00
1:53 am 01:53 Partly Cloudy 76 24.4 67 19.4 74 74 E 5 7 29.94 1014 10 16 0.00 0.00
2:53 am 02:53 Clear 75 23.9 66 18.9 74 74 ESE 7 11 29.93 1014 10 16 0.00 0.00
3:53 am 03:53 Clear 75 23.9 66 18.9 74 74 ESE 7 11 29.93 1013 10 16 0.00 0.00
4:53 am 04:53 Clear 74 23.3 65 18.3 74 74 ENE 6 9 29.93 1013 10 16 0.00 0.00
5:53 am 05:53 Clear 73 22.8 64 17.8 74 74 NNE 6 9 29.94 1014 10 16 0.00 0.00
6:53 am 06:53 Sunny 76 24.4 67 19.4 74 74 NNE 7 11 29.96 1015 10 16 0.00 0.00
7:53 am 07:53 Sunny 80 26.7 68 20 67 67 N 9 15 29.97 1015 10 16 0.00 0.00
8:53 am 08:53 Sunny 83 28.3 67 19.4 59 59 NNW 8 13 29.98 1015 10 16 0.00 0.00
9:53 am 09:53 Mostly Sunny 84 28.9 68 20 59 59 NW 12 19 29.98 1015 10 16 0.00 0.00
10:53 am 10:53 Mostly Sunny 84 28.9 68 20 59 59 NW 13 20 29.97 1015 10 16 0.00 0.00
11:53 am 11:53 Sunny 85 29.4 69 20.6 59 59 NW 15 24 29.95 1014 10 16 0.00 0.00
12:53 pm 12:53 Mostly Sunny 87 30.6 70 21.1 57 57 NW 14 22 29.93 1014 10 16 0.00 0.00
1:53 pm 13:53 Mostly Sunny 85 29.4 70 21.1 61 61 NW 12 19 29.92 1013 10 16 0.00 0.00
2:53 pm 14:53 Mostly Sunny 86 30 70 21.1 59 59 WNW 10 17 29.91 1013 10 16 0.00 0.00
3:53 pm 15:53 Sunny 84 28.9 70 21.1 63 63 W 9 15 29.90 1013 10 16 0.00 0.00
4:53 pm 16:53 Sunny 83 28.3 70 21.1 65 65 SW 7 11 29.90 1013 10 16 0.00 0.00
5:53 pm 17:53 Sunny 83 28.3 70 21.1 65 65 S 9 15 29.91 1013 10 16 0.00 0.00
6:53 pm 18:53 Sunny 82 27.8 71 21.7 69 69 S 13 20 29.93 1014 10 16 0.00 0.00
7:53 pm 19:53 Mostly Cloudy 81 27.2 71 21.7 72 72 SSE 14 22 29.96 1014 10 16 0.00 0.00
8:53 pm 20:53 Mostly Cloudy 81 27.2 71 21.7 72 72 SSE 12 19 29.96 1015 10 16 0.00 0.00
9:53 pm 21:53 Clear 79 26.1 70 21.1 74 74 SE 12 19 29.98 1015 10 16 0.00 0.00
10:53 pm 22:53 Mostly Cloudy 80 26.7 71 21.7 74 74 SSE 9 15 29.98 1015 10 16 0.00 0.00
11:25 pm 23:25 Cloudy 79 26.1 70 21.1 74 74 ESE 8 13 29.98 1015 10 16 0.00 0.00
11:53 pm 23:53 Partly Cloudy 79 26.1 71 21.7 77 77 SE 7 11 29.98 1015 10 16 0.00 0.00

Powered by AerisWeather